BAW7AZ EDDM-EGLL

Flight info

Callsign BAW7AZ
Flight time 1h 29m
Altitude 34000
Route GIVMI1N/26R GIVMI Y101 INBED DCT REKDI DCT LOHRE DCT ADKUV DCT DENUT L608 LOGAN
Aircraft A320/M-SDE3FGHIKRWXY/S

Departure

Time 2026-05-06 20:05
Airport Munich Airport (EDDM)

Arrival

Time 2026-05-06 21:34
Airport London Heathrow Airport (EGLL)
Time Latitude Longitude Altitude Speed Heading
2026-05-06 19:57 48.36017 11.78276 1485 ft 6 kts 85°
2026-05-06 19:57 48.36020 11.78346 1485 ft 8 kts 85°
2026-05-06 19:58 48.36025 11.78439 1485 ft 10 kts 85°
2026-05-06 19:58 48.36033 11.78551 1485 ft 12 kts 82°
2026-05-06 19:58 48.36045 11.78682 1485 ft 13 kts 83°
2026-05-06 19:58 48.36056 11.78826 1485 ft 14 kts 83°
2026-05-06 19:59 48.36068 11.78983 1485 ft 16 kts 84°
2026-05-06 19:59 48.36080 11.79151 1477 ft 17 kts 83°
2026-05-06 19:59 48.36092 11.79314 1473 ft 13 kts 84°
2026-05-06 19:59 48.36108 11.79432 1478 ft 10 kts 59°
2026-05-06 20:00 48.36174 11.79465 1474 ft 11 kts
2026-05-06 20:00 48.36219 11.79553 1485 ft 12 kts 79°
2026-05-06 20:00 48.36231 11.79698 1485 ft 17 kts 84°
2026-05-06 20:00 48.36244 11.79881 1485 ft 18 kts 84°
2026-05-06 20:01 48.36260 11.80075 1485 ft 19 kts 83°
2026-05-06 20:01 48.36276 11.80279 1480 ft 20 kts 83°
2026-05-06 20:01 48.36292 11.80495 1478 ft 21 kts 84°
2026-05-06 20:01 48.36310 11.80721 1478 ft 22 kts 83°
2026-05-06 20:02 48.36329 11.80959 1485 ft 23 kts 83°
2026-05-06 20:02 48.36347 11.81208 1485 ft 24 kts 84°
2026-05-06 20:02 48.36366 11.81468 1477 ft 26 kts 83°
2026-05-06 20:02 48.36388 11.81738 1485 ft 26 kts 83°
2026-05-06 20:03 48.36397 11.81928 1485 ft 11 kts 94°
2026-05-06 20:03 48.36425 11.82003 1481 ft 7 kts 17°
2026-05-06 20:03 48.36478 11.81998 1480 ft 8 kts 353°
2026-05-06 20:03 48.36537 11.81987 1481 ft 9 kts 353°
2026-05-06 20:04 48.36606 11.81975 1485 ft 11 kts 353°
2026-05-06 20:04 48.36665 11.81945 1477 ft 7 kts 314°
2026-05-06 20:04 48.36669 11.81864 1480 ft 10 kts 264°
2026-05-06 20:04 48.36646 11.81576 1485 ft 57 kts 263°
2026-05-06 20:05 48.36605 11.81049 1485 ft 93 kts 263°
2026-05-06 20:05 48.36512 11.79850 1483 ft 137 kts 263°
2026-05-06 20:05 48.36395 11.78289 1760 ft 152 kts 263°
2026-05-06 20:05 48.36286 11.76705 2354 ft 153 kts 263°
2026-05-06 20:06 48.36168 11.75093 2848 ft 162 kts 264°
2026-05-06 20:06 48.36033 11.73305 3080 ft 183 kts 264°
2026-05-06 20:06 48.35882 11.71289 3464 ft 200 kts 264°
2026-05-06 20:06 48.35727 11.69197 4194 ft 203 kts 269°
2026-05-06 20:07 48.36026 11.67112 4823 ft 215 kts 295°
2026-05-06 20:07 48.36821 11.65067 5219 ft 236 kts 299°
2026-05-06 20:07 48.37707 11.62926 5928 ft 244 kts 299°
2026-05-06 20:07 48.38621 11.60734 6612 ft 250 kts 298°
2026-05-06 20:08 48.39546 11.58507 6819 ft 252 kts 298°
2026-05-06 20:08 48.40473 11.56256 6876 ft 253 kts 298°
2026-05-06 20:08 48.41395 11.54002 6882 ft 253 kts 298°
2026-05-06 20:08 48.42316 11.51737 6882 ft 253 kts 298°
2026-05-06 20:09 48.43238 11.49470 7037 ft 256 kts 297°
2026-05-06 20:09 48.44236 11.47239 7838 ft 262 kts 308°
2026-05-06 20:09 48.45754 11.45546 8554 ft 276 kts 324°
2026-05-06 20:09 48.47450 11.44119 9253 ft 282 kts 325°
2026-05-06 20:10 48.49192 11.42679 9908 ft 289 kts 326°
2026-05-06 20:10 48.51004 11.41179 10254 ft 307 kts 326°
2026-05-06 20:10 48.52941 11.39562 10403 ft 330 kts 326°
2026-05-06 20:10 48.54998 11.37846 10755 ft 343 kts 326°
2026-05-06 20:11 48.57105 11.36096 11351 ft 348 kts 326°
2026-05-06 20:11 48.59238 11.34328 11983 ft 352 kts 326°
2026-05-06 20:11 48.61396 11.32534 12609 ft 356 kts 327°
2026-05-06 20:11 48.63578 11.30714 13200 ft 361 kts 327°
2026-05-06 20:12 48.65785 11.28867 13807 ft 365 kts 327°
2026-05-06 20:12 48.68017 11.26994 14346 ft 369 kts 327°
2026-05-06 20:12 48.70280 11.25092 14867 ft 373 kts 327°
2026-05-06 20:12 48.72557 11.23179 15374 ft 378 kts 328°
2026-05-06 20:13 48.74873 11.21232 15882 ft 382 kts 328°
2026-05-06 20:13 48.77209 11.19261 16395 ft 386 kts 328°
2026-05-06 20:13 48.79568 11.17269 16902 ft 391 kts 328°
2026-05-06 20:13 48.81954 11.15251 17419 ft 395 kts 328°
2026-05-06 20:14 48.84372 11.13201 17932 ft 400 kts 328°
2026-05-06 20:14 48.86830 11.11113 18221 ft 411 kts 328°
2026-05-06 20:14 48.89326 11.08992 18831 ft 410 kts 328°
2026-05-06 20:14 48.91826 11.06872 19417 ft 412 kts 328°
2026-05-06 20:15 48.94336 11.04746 19946 ft 415 kts 329°
2026-05-06 20:15 48.96901 11.02571 20502 ft 418 kts 328°
2026-05-06 20:15 48.99453 11.00404 21006 ft 421 kts 328°
2026-05-06 20:15 49.02027 10.98212 21440 ft 426 kts 328°
2026-05-06 20:16 49.04622 10.95997 21876 ft 430 kts 328°
2026-05-06 20:16 49.07239 10.93758 22310 ft 434 kts 329°
2026-05-06 20:16 49.09879 10.91499 22728 ft 437 kts 329°
2026-05-06 20:16 49.12550 10.89210 23150 ft 441 kts 329°
2026-05-06 20:17 49.15235 10.86906 23536 ft 445 kts 329°
2026-05-06 20:17 49.17945 10.84577 23908 ft 448 kts 329°
2026-05-06 20:17 49.20666 10.82234 24274 ft 450 kts 328°
2026-05-06 20:17 49.23392 10.79884 24633 ft 451 kts 328°
2026-05-06 20:18 49.26134 10.77518 25013 ft 453 kts 328°
2026-05-06 20:18 49.28885 10.75146 25385 ft 454 kts 328°
2026-05-06 20:18 49.31645 10.72764 25736 ft 456 kts 328°
2026-05-06 20:18 49.34419 10.70363 26069 ft 459 kts 328°
2026-05-06 20:19 49.37203 10.67948 26380 ft 462 kts 328°
2026-05-06 20:19 49.40008 10.65511 26719 ft 464 kts 328°
2026-05-06 20:19 49.42824 10.63063 27047 ft 466 kts 328°
2026-05-06 20:19 49.45652 10.60603 27374 ft 468 kts 328°
2026-05-06 20:20 49.48486 10.58138 27712 ft 470 kts 328°
2026-05-06 20:20 49.51341 10.55648 28029 ft 472 kts 328°
2026-05-06 20:20 49.54202 10.53148 28335 ft 474 kts 328°
2026-05-06 20:20 49.57072 10.50640 28746 ft 474 kts 328°
2026-05-06 20:21 49.59936 10.48133 29197 ft 473 kts 328°
2026-05-06 20:21 49.62749 10.45538 29631 ft 470 kts 322°
2026-05-06 20:21 49.65285 10.42395 30051 ft 465 kts 313°
2026-05-06 20:21 49.67452 10.38736 30464 ft 459 kts 303°
2026-05-06 20:22 49.69273 10.34724 30877 ft 455 kts 300°
2026-05-06 20:22 49.71047 10.30677 31292 ft 454 kts 300°
2026-05-06 20:22 49.72840 10.26600 31729 ft 452 kts 300°
2026-05-06 20:22 49.74611 10.22587 32159 ft 451 kts 300°
2026-05-06 20:23 49.76377 10.18586 32595 ft 449 kts 299°
2026-05-06 20:23 49.78129 10.14608 33041 ft 447 kts 299°
2026-05-06 20:23 49.79876 10.10630 33486 ft 445 kts 299°
2026-05-06 20:23 49.81610 10.06671 33772 ft 445 kts 299°
2026-05-06 20:24 49.85111 9.98637 33835 ft 455 kts 299°
2026-05-06 20:24 49.88665 9.90457 33818 ft 459 kts 299°
2026-05-06 20:25 49.92240 9.82234 33819 ft 460 kts 299°
2026-05-06 20:25 49.95805 9.73997 33819 ft 460 kts 299°
2026-05-06 20:26 49.99363 9.65734 34235 ft 460 kts 299°
2026-05-06 20:26 50.01136 9.61607 34544 ft 459 kts 299°
2026-05-06 20:26 50.02905 9.57485 34865 ft 458 kts 300°
2026-05-06 20:27 50.04674 9.53365 35176 ft 457 kts 300°
2026-05-06 20:27 50.07518 9.44214 35745 ft 446 kts 282°
2026-05-06 20:27 50.08320 9.39598 35822 ft 445 kts 281°
2026-05-06 20:28 50.09888 9.30609 35839 ft 445 kts 281°
2026-05-06 20:28 50.11524 9.21317 35834 ft 445 kts 281°
2026-05-06 20:29 50.13160 9.12012 35843 ft 444 kts 282°
2026-05-06 20:29 50.14779 9.02725 35850 ft 444 kts 282°
2026-05-06 20:30 50.17185 8.88769 35853 ft 444 kts 282°
2026-05-06 20:31 50.18778 8.79447 35866 ft 445 kts 282°
2026-05-06 20:31 50.20364 8.70134 35867 ft 445 kts 281°
2026-05-06 20:32 50.21966 8.60723 35871 ft 445 kts 281°
2026-05-06 20:32 50.23544 8.51387 35878 ft 445 kts 281°
2026-05-06 20:33 50.25108 8.42037 35883 ft 444 kts 281°
2026-05-06 20:33 50.26668 8.32696 35886 ft 444 kts 281°
2026-05-06 20:34 50.28225 8.23338 35899 ft 444 kts 282°
2026-05-06 20:34 50.29766 8.13977 35892 ft 444 kts 282°
2026-05-06 20:35 50.31302 8.04621 35888 ft 444 kts 282°
2026-05-06 20:35 50.32835 7.95256 35882 ft 444 kts 281°
2026-05-06 20:36 50.34355 7.85894 35890 ft 444 kts 281°
2026-05-06 20:36 50.35871 7.76516 35899 ft 444 kts 282°
2026-05-06 20:37 50.37381 7.67138 35897 ft 444 kts 282°
2026-05-06 20:37 50.38629 7.59344 35892 ft 444 kts 282°
2026-05-06 20:38 50.40133 7.49893 35887 ft 444 kts 282°
2026-05-06 20:38 50.41613 7.40506 35900 ft 444 kts 282°
2026-05-06 20:39 50.43083 7.31107 35901 ft 443 kts 282°
2026-05-06 20:39 50.44552 7.21719 35902 ft 443 kts 282°
2026-05-06 20:40 50.46012 7.12329 35899 ft 443 kts 282°
2026-05-06 20:40 50.47462 7.02935 35907 ft 443 kts 282°
2026-05-06 20:41 50.48900 6.93541 35916 ft 443 kts 282°
2026-05-06 20:41 50.50339 6.84133 35922 ft 443 kts 282°
2026-05-06 20:42 50.52368 6.74977 35910 ft 445 kts 289°
2026-05-06 20:42 50.54610 6.65911 35915 ft 445 kts 289°
2026-05-06 20:43 50.56844 6.56828 35915 ft 445 kts 289°
2026-05-06 20:43 50.59069 6.47732 35927 ft 446 kts 289°
2026-05-06 20:44 50.61298 6.38627 35927 ft 446 kts 289°
2026-05-06 20:44 50.63511 6.29514 35930 ft 445 kts 289°
2026-05-06 20:45 50.65717 6.20395 35929 ft 445 kts 289°
2026-05-06 20:45 50.67901 6.11269 35937 ft 445 kts 289°
2026-05-06 20:46 50.70100 6.02072 35950 ft 445 kts 289°
2026-05-06 20:46 50.72283 5.92951 35962 ft 444 kts 289°
2026-05-06 20:47 50.74456 5.83826 35961 ft 444 kts 289°
2026-05-06 20:47 50.76618 5.74694 35969 ft 444 kts 289°
2026-05-06 20:48 50.78772 5.65568 35960 ft 443 kts 289°
2026-05-06 20:48 50.80920 5.56443 35973 ft 443 kts 289°
2026-05-06 20:49 50.83055 5.47310 35965 ft 442 kts 289°
2026-05-06 20:49 50.85172 5.38185 35966 ft 442 kts 289°
2026-05-06 20:50 50.87281 5.29049 35969 ft 442 kts 289°
2026-05-06 20:50 50.89387 5.19913 35971 ft 442 kts 289°
2026-05-06 20:51 50.91498 5.10779 35976 ft 441 kts 289°
2026-05-06 20:51 50.93587 5.01641 35976 ft 441 kts 289°
2026-05-06 20:52 50.95671 4.92489 35975 ft 441 kts 289°
2026-05-06 20:52 50.97750 4.83327 35975 ft 441 kts 289°
2026-05-06 20:53 50.99813 4.74164 35974 ft 441 kts 289°
2026-05-06 20:53 51.01870 4.64987 35995 ft 441 kts 289°
2026-05-06 20:54 51.03946 4.55760 35995 ft 441 kts 289°
2026-05-06 20:54 51.05996 4.46576 35996 ft 441 kts 289°
2026-05-06 20:55 51.08030 4.37386 35997 ft 441 kts 289°
2026-05-06 20:55 51.10062 4.28190 35997 ft 441 kts 288°
2026-05-06 20:56 51.12082 4.18980 35997 ft 441 kts 288°
2026-05-06 20:56 51.14100 4.09775 35994 ft 441 kts 288°
2026-05-06 20:57 51.16110 4.00560 35992 ft 440 kts 288°
2026-05-06 20:57 51.18107 3.91331 35984 ft 440 kts 288°
2026-05-06 20:58 51.20103 3.82095 35982 ft 440 kts 288°
2026-05-06 20:58 51.22088 3.72858 35985 ft 440 kts 288°
2026-05-06 20:59 51.24339 3.63798 35982 ft 440 kts 299°
2026-05-06 20:59 51.27476 3.55398 35985 ft 441 kts 300°
2026-05-06 21:00 51.30622 3.46929 35987 ft 440 kts 300°
2026-05-06 21:00 51.33728 3.38477 35986 ft 440 kts 299°
2026-05-06 21:01 51.36202 3.29672 35989 ft 438 kts 290°
2026-05-06 21:01 51.38358 3.20550 35995 ft 438 kts 290°
2026-05-06 21:02 51.40410 3.11885 35995 ft 438 kts 290°
2026-05-06 21:02 51.42560 3.02766 35995 ft 438 kts 290°
2026-05-06 21:03 51.44699 2.93629 35997 ft 438 kts 290°
2026-05-06 21:03 51.46834 2.84496 36006 ft 437 kts 290°
2026-05-06 21:04 51.48960 2.75391 36012 ft 436 kts 290°
2026-05-06 21:04 51.51078 2.66278 36016 ft 435 kts 290°
2026-05-06 21:05 51.53172 2.57160 36016 ft 435 kts 289°
2026-05-06 21:05 51.55260 2.48031 36023 ft 435 kts 289°
2026-05-06 21:05 51.56305 2.43465 35866 ft 434 kts 289°
2026-05-06 21:06 51.57340 2.38930 35617 ft 432 kts 289°
2026-05-06 21:06 51.58374 2.34386 35092 ft 433 kts 289°
2026-05-06 21:06 51.59412 2.29826 34327 ft 436 kts 289°
2026-05-06 21:06 51.60461 2.25231 33433 ft 439 kts 289°
2026-05-06 21:07 51.61516 2.20600 32540 ft 441 kts 289°
2026-05-06 21:07 51.62566 2.15965 31699 ft 441 kts 289°
2026-05-06 21:07 51.63619 2.11301 31223 ft 434 kts 289°
2026-05-06 21:07 51.64646 2.06748 30657 ft 430 kts 289°
2026-05-06 21:08 51.65660 2.02238 30108 ft 427 kts 289°
2026-05-06 21:08 51.66663 1.97763 29499 ft 423 kts 289°
2026-05-06 21:08 51.67651 1.93340 28951 ft 417 kts 289°
2026-05-06 21:08 51.68625 1.88968 28410 ft 412 kts 289°
2026-05-06 21:09 51.69587 1.84644 27873 ft 408 kts 289°
2026-05-06 21:09 51.70537 1.80362 27334 ft 404 kts 289°
2026-05-06 21:09 51.71158 1.77550 26995 ft 401 kts 289°
2026-05-06 21:09 51.72401 1.71912 26297 ft 397 kts 289°
2026-05-06 21:10 51.73013 1.69138 25955 ft 395 kts 288°
2026-05-06 21:10 51.73900 1.64974 25458 ft 391 kts 285°
2026-05-06 21:10 51.74418 1.60687 24965 ft 388 kts 275°
2026-05-06 21:10 51.74462 1.56344 24374 ft 388 kts 265°
2026-05-06 21:11 51.74185 1.52009 23793 ft 389 kts 264°
2026-05-06 21:11 51.73899 1.47668 23143 ft 389 kts 264°
2026-05-06 21:11 51.73615 1.43336 22555 ft 387 kts 264°
2026-05-06 21:11 51.73335 1.39023 21977 ft 386 kts 264°
2026-05-06 21:12 51.73060 1.34721 21399 ft 385 kts 264°
2026-05-06 21:12 51.72782 1.30421 20821 ft 385 kts 264°
2026-05-06 21:12 51.72500 1.26137 20240 ft 384 kts 264°
2026-05-06 21:12 51.72216 1.21854 19668 ft 384 kts 264°
2026-05-06 21:13 51.71928 1.17550 19092 ft 376 kts 264°
2026-05-06 21:13 51.71649 1.13418 18529 ft 365 kts 264°
2026-05-06 21:13 51.71375 1.09402 17958 ft 358 kts 264°
2026-05-06 21:13 51.71103 1.05434 17404 ft 356 kts 264°
2026-05-06 21:14 51.70829 1.01479 16871 ft 353 kts 264°
2026-05-06 21:14 51.70558 0.97555 16341 ft 351 kts 264°
2026-05-06 21:14 51.70293 0.93671 15940 ft 346 kts 264°
2026-05-06 21:14 51.70030 0.89823 15336 ft 345 kts 264°
2026-05-06 21:15 51.69767 0.86016 14732 ft 342 kts 264°
2026-05-06 21:15 51.69501 0.82204 14189 ft 342 kts 264°
2026-05-06 21:15 51.69232 0.78397 13634 ft 342 kts 264°
2026-05-06 21:15 51.68962 0.74592 13064 ft 341 kts 264°
2026-05-06 21:16 51.68694 0.70799 12523 ft 340 kts 264°
2026-05-06 21:16 51.68426 0.67026 11990 ft 338 kts 264°
2026-05-06 21:16 51.68158 0.63284 11563 ft 334 kts 264°
2026-05-06 21:16 51.67893 0.59620 11285 ft 324 kts 264°
2026-05-06 21:17 51.67636 0.56112 11029 ft 306 kts 264°
2026-05-06 21:17 51.67392 0.52788 10784 ft 293 kts 264°
2026-05-06 21:17 51.67159 0.49555 10556 ft 288 kts 264°
2026-05-06 21:17 51.66927 0.46372 10407 ft 285 kts 264°
2026-05-06 21:18 51.66694 0.43203 10257 ft 284 kts 264°
2026-05-06 21:18 51.66462 0.40035 10110 ft 284 kts 264°
2026-05-06 21:18 51.66230 0.36876 9964 ft 284 kts 264°
2026-05-06 21:18 51.65998 0.33728 9822 ft 283 kts 264°
2026-05-06 21:19 51.65765 0.30584 9669 ft 282 kts 265°
2026-05-06 21:19 51.65534 0.27459 9504 ft 281 kts 264°
2026-05-06 21:19 51.65302 0.24337 9354 ft 281 kts 264°
2026-05-06 21:19 51.65068 0.21256 9179 ft 270 kts 264°
2026-05-06 21:20 51.64846 0.18345 9021 ft 254 kts 264°
2026-05-06 21:20 51.64636 0.15565 8853 ft 248 kts 264°
2026-05-06 21:20 51.64445 0.12777 8707 ft 247 kts 265°
2026-05-06 21:20 51.64291 0.10027 8548 ft 246 kts 265°
2026-05-06 21:21 51.64149 0.07286 8392 ft 246 kts 266°
2026-05-06 21:21 51.64008 0.04545 8247 ft 245 kts 265°
2026-05-06 21:21 51.63865 0.01804 8078 ft 245 kts 265°
2026-05-06 21:21 51.63718 -0.00932 7923 ft 245 kts 265°
2026-05-06 21:22 51.63568 -0.03657 7770 ft 243 kts 266°
2026-05-06 21:22 51.63425 -0.06252 7625 ft 242 kts 266°
2026-05-06 21:22 51.63272 -0.08952 7478 ft 242 kts 266°
2026-05-06 21:22 51.63120 -0.11642 7324 ft 241 kts 265°
2026-05-06 21:23 51.62967 -0.14320 7179 ft 240 kts 266°
2026-05-06 21:23 51.62815 -0.16998 7074 ft 240 kts 265°
2026-05-06 21:23 51.62663 -0.19674 7055 ft 240 kts 265°
2026-05-06 21:23 51.62507 -0.22357 7057 ft 241 kts 266°
2026-05-06 21:24 51.62349 -0.25027 7058 ft 240 kts 266°
2026-05-06 21:24 51.62191 -0.27711 7057 ft 241 kts 265°
2026-05-06 21:24 51.62034 -0.30389 7057 ft 240 kts 265°
2026-05-06 21:24 51.61879 -0.33067 7021 ft 241 kts 265°
2026-05-06 21:25 51.61722 -0.35752 7028 ft 241 kts 265°
2026-05-06 21:25 51.61562 -0.38437 7029 ft 241 kts 265°
2026-05-06 21:25 51.61403 -0.41116 7029 ft 241 kts 265°
2026-05-06 21:25 51.61243 -0.43823 7030 ft 241 kts 265°
2026-05-06 21:26 51.61084 -0.46514 7029 ft 241 kts 266°
2026-05-06 21:26 51.60925 -0.49190 6991 ft 241 kts 266°
2026-05-06 21:26 51.60764 -0.51864 6864 ft 240 kts 265°
2026-05-06 21:26 51.60601 -0.54537 6740 ft 239 kts 265°
2026-05-06 21:27 51.60438 -0.57201 6580 ft 239 kts 265°
2026-05-06 21:27 51.60275 -0.59839 6352 ft 235 kts 265°
2026-05-06 21:27 51.60118 -0.62437 6111 ft 231 kts 265°
2026-05-06 21:27 51.59985 -0.64980 5845 ft 227 kts 266°
2026-05-06 21:28 51.59854 -0.67469 5557 ft 221 kts 266°
2026-05-06 21:28 51.59437 -0.69809 5272 ft 219 kts 236°
2026-05-06 21:28 51.58311 -0.71389 4996 ft 216 kts 207°
2026-05-06 21:28 51.56939 -0.72360 4706 ft 216 kts 202°
2026-05-06 21:29 51.55536 -0.73219 4427 ft 216 kts 201°
2026-05-06 21:29 51.54131 -0.74054 4136 ft 214 kts 201°
2026-05-06 21:29 51.52742 -0.74882 3917 ft 210 kts 201°
2026-05-06 21:29 51.51397 -0.75691 3749 ft 203 kts 201°
2026-05-06 21:30 51.50097 -0.76468 3593 ft 196 kts 199°
2026-05-06 21:30 51.48771 -0.76591 3378 ft 193 kts 160°
2026-05-06 21:30 51.47785 -0.75260 3167 ft 187 kts 112°
2026-05-06 21:30 51.47628 -0.73251 3056 ft 184 kts 85°
2026-05-06 21:31 51.47645 -0.71184 2913 ft 185 kts 88°
2026-05-06 21:31 51.47650 -0.69127 2697 ft 184 kts 87°
2026-05-06 21:31 51.47659 -0.67076 2456 ft 185 kts 87°
2026-05-06 21:31 51.47669 -0.65026 2201 ft 182 kts 87°
2026-05-06 21:32 51.47680 -0.63026 1952 ft 176 kts 87°
2026-05-06 21:32 51.47699 -0.59189 1485 ft 168 kts 87°
2026-05-06 21:32 51.47708 -0.57357 1267 ft 156 kts 86°
2026-05-06 21:33 51.47715 -0.55691 1044 ft 145 kts 87°
2026-05-06 21:33 51.47725 -0.54100 846 ft 141 kts 86°
2026-05-06 21:33 51.47733 -0.52548 641 ft 138 kts 88°
2026-05-06 21:33 51.47739 -0.51011 441 ft 137 kts 87°
2026-05-06 21:34 51.47744 -0.49489 260 ft 136 kts 87°
2026-05-06 21:34 51.47751 -0.47963 96 ft 136 kts 86°
2026-05-06 21:34 51.47759 -0.46754 90 ft 68 kts 89°
2026-05-06 21:34 51.47760 -0.46330 88 ft 30 kts 90°
2026-05-06 21:35 51.47709 -0.46149 89 ft 17 kts 144°
2026-05-06 21:35 51.47636 -0.46071 88 ft 8 kts 155°
2026-05-06 21:35 51.47592 -0.46113 87 ft 9 kts 260°
2026-05-06 21:35 51.47593 -0.46228 86 ft 11 kts 271°
2026-05-06 21:36 51.47594 -0.46369 86 ft 14 kts 270°
2026-05-06 21:36 51.47592 -0.46538 86 ft 17 kts 269°
2026-05-06 21:36 51.47591 -0.46737 86 ft 18 kts 269°
2026-05-06 21:36 51.47582 -0.46943 89 ft 19 kts 271°
2026-05-06 21:37 51.47582 -0.47168 88 ft 20 kts 270°
2026-05-06 21:37 51.47582 -0.47393 91 ft 20 kts 268°
2026-05-06 21:37 51.47581 -0.47621 90 ft 21 kts 269°
2026-05-06 21:37 51.47581 -0.47862 90 ft 21 kts 269°
2026-05-06 21:38 51.47580 -0.48091 88 ft 17 kts 269°
2026-05-06 21:38 51.47580 -0.48281 88 ft 17 kts 271°
2026-05-06 21:38 51.47580 -0.48428 89 ft 9 kts 265°
2026-05-06 21:38 51.47541 -0.48479 87 ft 8 kts 179°
2026-05-06 21:39 51.47483 -0.48476 86 ft 9 kts 178°
2026-05-06 21:39 51.47421 -0.48474 86 ft 9 kts 179°
2026-05-06 21:39 51.47390 -0.48474 86 ft 0 kts 182°
2026-05-06 21:39 51.47370 -0.48475 86 ft 5 kts 180°
2026-05-06 21:40 51.47331 -0.48476 86 ft 5 kts 189°
2026-05-06 21:40 51.47316 -0.48517 86 ft 4 kts 262°
2026-05-06 21:40 51.47316 -0.48568 86 ft 5 kts 269°
2026-05-06 21:40 51.47316 -0.48588 86 ft 0 kts 269°